QPF
0.00 0.00 0.00 0.01 0.01 0.01 0.01 0.00 0.00 0.00 0.00 0.00 0.00 0.00 0.00 0.00 0.00 0.00 0.00 0.00 0.01 0.00 0.00 0.00 0.00 0.00 0.00 0.00 0.00 0.00 0.00 0.00 0.00 0.00 0.00 0.00 0.00 0.00 0.00 0.00 0.00 0.00 0.01
0.00 0.01 0.00 0.00 0.01 0.01 0.00 0.00 0.00 0.00 0.00 0.00 0.00 0.00 0.00 0.00 0.00 0.00 0.00 0.00 0.00 0.00 0.00 0.00 0.00 0.00 0.00 0.00 0.00 0.00 0.00 0.00 0.00 0.00 0.00 0.00 0.00 0.00 0.00 0.00 0.00 0.00 0.00
0.01 0.03 0.02 0.00 0.00 0.00 0.00 0.00 0.00 0.00 0.00 0.00 0.00 0.00 0.00 0.00 0.00 0.00 0.00 0.00 0.00 0.00 0.00 0.00 0.00 0.00 0.00 0.00 0.00 0.00 0.00 0.00 0.00 0.00 0.00 0.00 0.00 0.00 0.00 0.00 0.00 0.00 0.00
0.02 0.08 0.07 0.00 0.00 0.00 0.00 0.00 0.00 0.00 0.00 0.00 0.00 0.00 0.00 0.00 0.00 0.00 0.00 0.00 0.00 0.01 0.00 0.00 0.00 0.00 0.00 0.00 0.00 0.00 0.00 0.00 0.00 0.00 0.00 0.00 0.00 0.00 0.00 0.00 0.00 0.00 0.00
0.03 0.04 0.07 0.00 0.00 0.00 0.00 0.00 0.00 0.00 0.00 0.00 0.00 0.00 0.00 0.00 0.00 0.00 0.00 0.00 0.00 0.01 0.00 0.00 0.00 0.00 0.00 0.00 0.00 0.00 0.00 0.00 0.00 0.00 0.00 0.00 0.00 0.00 0.00 0.00 0.00 0.00 0.00
0.33 0.16 0.15 0.06 0.02 0.00 0.00 0.00 0.00 0.00 0.00 0.00 0.00 0.00 0.00 0.00 0.00 0.00 0.00 0.00 0.01 0.00 0.00 0.00 0.00 0.00 0.00 0.00 0.00 0.00 0.00 0.00 0.00 0.00 0.00 0.00 0.00 0.00 0.00 0.00 0.00 0.00 0.00
0.45 0.20 0.13 0.18 0.04 0.01 0.00 0.00 0.00 0.00 0.00 0.00 0.00 0.00 0.00 0.00 0.00 0.00 0.00 0.00 0.00 0.00 0.00 0.00 0.00 0.00 0.00 0.00 0.00 0.00 0.00 0.00 0.00 0.00 0.00 0.00 0.00 0.00 0.00 0.00 0.00 0.00 0.00
0.50 0.28 0.21 0.15 0.13 0.07 0.03 0.01 0.00 0.00 0.00 0.00 0.00 0.00 0.00 0.00 0.00 0.00 0.00 0.00 0.00 0.00 0.00 0.00 0.00 0.00 0.00 0.00 0.00 0.00 0.00 0.00 0.00 0.00 0.00 0.00 0.00 0.00 0.00 0.00 0.00 0.00 0.00
0.39 0.28 0.21 0.16 0.11 0.12 0.09 0.02 0.00 0.01 0.00 0.00 0.00 0.00 0.00 0.00 0.00 0.00 0.00 0.00 0.00 0.00 0.00 0.00 0.00 0.00 0.00 0.00 0.00 0.00 0.00 0.00 0.00 0.00 0.00 0.00 0.00 0.00 0.00 0.00 0.00 0.00 0.00
0.32 0.32 0.10 0.07 0.09 0.09 0.06 0.02 0.01 0.03 0.02 0.00 0.00 0.00 0.00 0.00 0.00 0.00 0.00 0.00 0.00 0.00 0.00 0.00 0.00 0.00 0.00 0.00 0.00 0.00 0.00 0.00 0.00 0.00 0.00 0.00 0.00 0.00 0.00 0.00 0.00 0.00 0.00
0.02 0.07 0.10 0.04 0.03 0.04 0.02 0.03 0.05 0.02 0.00 0.00 0.00 0.00 0.00 0.00 0.00 0.00 0.00 0.00 0.00 0.00 0.00 0.00 0.00 0.00 0.00 0.00 0.00 0.00 0.00 0.00 0.00 0.00 0.00 0.00 0.00 0.00 0.00 0.00 0.00 0.00 0.00
0.02 0.05 0.04 0.04 0.03 0.02 0.01 0.03 0.06 0.04 0.00 0.00 0.00 0.00 0.00 0.00 0.00 0.00 0.00 0.00 0.00 0.00 0.00 0.00 0.00 0.00 0.00 0.00 0.00 0.00 0.00 0.00 0.00 0.00 0.00 0.00 0.00 0.00 0.00 0.00 0.00 0.00 0.00
0.00 0.02 0.02 0.02 0.01 0.02 0.01 0.01 0.03 0.05 0.00 0.00 0.00 0.00 0.00 0.00 0.00 0.00 0.00 0.00 0.00 0.00 0.00 0.00 0.00 0.00 0.00 0.00 0.00 0.00 0.00 0.00 0.00 0.00 0.00 0.00 0.00 0.00 0.00 0.00 0.00 0.00 0.00
0.00 0.02 0.01 0.01 0.00 0.00 0.00 0.00 0.00 0.01 0.00 0.00 0.00 0.00 0.00 0.00 0.00 0.00 0.00 0.00 0.00 0.00 0.00 0.00 0.00 0.00 0.00 0.00 0.00 0.00 0.00 0.00 0.00 0.00 0.00 0.00 0.00 0.00 0.00 0.00 0.00 0.00 0.00
0.01 0.01 0.00 0.00 0.00 0.01 0.01 0.00 0.00 0.00 0.00 0.00 0.00 0.00 0.00 0.00 0.00 0.00 0.00 0.00 0.00 0.00 0.00 0.00 0.00 0.00 0.00 0.00 0.00 0.00 0.00 0.00 0.00 0.00 0.00 0.00 0.00 0.00 0.00 0.00 0.00 0.00 0.00
0.01 0.00 0.00 0.00 0.01 0.01 0.00 0.00 0.01 0.02 0.00 0.00 0.00 0.00 0.00 0.00 0.00 0.00 0.00 0.00 0.00 0.00 0.00 0.00 0.00 0.00 0.00 0.00 0.00 0.00 0.00 0.00 0.00 0.00 0.00 0.00 0.00 0.00 0.00 0.00 0.00 0.00 0.00
0.00 0.00 0.00 0.00 0.00 0.00 0.01 0.01 0.02 0.01 0.00 0.00 0.00 0.00 0.00 0.00 0.00 0.00 0.00 0.00 0.00 0.00 0.00 0.00 0.00 0.00 0.00 0.00 0.00 0.00 0.00 0.00 0.00 0.00 0.00 0.00 0.00 0.00 0.00 0.00 0.00 0.00 0.00
0.00 0.00 0.00 0.00 0.01 0.02 0.03 0.02 0.03 0.00 0.00 0.00 0.00 0.00 0.00 0.00 0.00 0.00 0.00 0.00 0.00 0.00 0.00 0.00 0.00 0.00 0.00 0.00 0.00 0.00 0.00 0.00 0.00 0.00 0.00 0.00 0.00 0.00 0.00 0.00 0.00 0.00 0.00
0.00 0.00 0.00 0.00 0.00 0.01 0.04 0.02 0.01 0.00 0.00 0.00 0.00 0.00 0.00 0.00 0.00 0.00 0.00 0.00 0.00 0.00 0.00 0.00 0.00 0.00 0.00 0.00 0.00 0.00 0.00 0.00 0.00 0.00 0.00 0.00 0.00 0.00 0.00 0.00 0.00 0.00 0.00
0.00 0.00 0.00 0.00 0.00 0.00 0.02 0.00 0.00 0.00 0.00 0.00 0.00 0.00 0.00 0.00 0.00 0.00 0.00 0.00 0.00 0.00 0.00 0.00 0.00 0.00 0.00 0.00 0.00 0.00 0.00 0.00 0.00 0.00 0.00 0.00 0.00 0.00 0.00 0.00 0.00 0.00 0.00
0.00 0.00 0.00 0.00 0.00 0.00 0.00 0.00 0.00 0.00 0.00 0.00 0.00 0.00 0.01 0.00 0.02 0.01 0.00 0.01 0.00 0.00 0.00 0.00 0.00 0.00 0.00 0.00 0.00 0.00 0.00 0.00 0.00 0.00 0.00 0.00 0.00 0.00 0.00 0.00 0.00 0.00 0.00
0.00 0.00 0.00 0.00 0.00 0.00 0.00 0.00 0.00 0.00 0.00 0.00 0.00 0.01 0.01 0.02 0.02 0.00 0.02 0.02 0.00 0.00 0.00 0.00 0.00 0.00 0.00 0.00 0.00 0.00 0.00 0.00 0.00 0.00 0.00 0.00 0.00 0.00 0.00 0.00 0.00 0.00 0.00
0.00 0.00 0.00 0.00 0.00 0.00 0.00 0.00 0.00 0.00 0.00 0.00 0.00 0.00 0.00 0.03 0.05 0.03 0.01 0.00 0.00 0.00 0.00 0.00 0.00 0.00 0.00 0.00 0.00 0.00 0.00 0.00 0.00 0.00 0.00 0.00 0.00 0.00 0.00 0.00 0.00 0.00 0.00
0.00 0.00 0.00 0.00 0.00 0.00 0.00 0.00 0.00 0.00 0.00 0.00 0.00 0.00 0.01 0.02 0.02 0.02 0.01 0.00 0.00 0.00 0.00 0.00 0.00 0.00 0.00 0.00 0.00 0.00 0.00 0.00 0.00 0.00 0.00 0.00 0.00 0.00 0.00 0.00 0.00 0.00 0.00
0.00 0.00 0.00 0.00 0.00 0.00 0.00 0.00 0.00 0.00 0.00 0.00 0.00 0.00 0.01 0.03 0.03 0.03 0.02 0.01 0.00 0.00 0.00 0.00 0.00 0.00 0.00 0.00 0.00 0.00 0.00 0.00 0.00 0.00 0.00 0.00 0.00 0.00 0.00 0.00 0.00 0.00 0.00
0.00 0.00 0.00 0.00 0.00 0.00 0.00 0.00 0.00 0.00 0.00 0.00 0.00 0.00 0.00 0.01 0.02 0.03 0.03 0.02 0.01 0.00 0.00 0.00 0.00 0.00 0.00 0.00 0.00 0.00 0.00 0.00 0.00 0.00 0.00 0.00 0.00 0.00 0.00 0.00 0.00 0.00 0.00
MSLP
1008.83 1010.09 1011.22 1011.50 1011.97 1012.48 1013.17 1013.71 1014.11 1014.40 1014.63 1015.08 1015.45 1015.92 1016.27 1016.57 1016.85 1017.07 1017.29 1017.53 1017.77 1018.11 1018.48 1018.72 1019.00 1019.20 1019.40 1019.67 1019.87 1020.06 1020.02 1019.87 1019.95 1019.88 1020.04 1020.16 1020.21 1020.28 1020.19 1020.07 1019.87 1020.16 1020.32
1008.63 1010.17 1011.48 1011.91 1012.23 1012.66 1013.34 1013.87 1014.24 1014.69 1014.90 1015.32 1015.82 1016.27 1016.63 1016.93 1017.14 1017.32 1017.61 1017.93 1018.28 1018.55 1019.01 1019.33 1019.60 1019.77 1020.07 1020.06 1020.27 1020.34 1020.38 1020.30 1020.30 1020.11 1019.98 1020.47 1020.74 1020.79 1020.90 1021.06 1021.00 1020.95 1020.97
1008.84 1010.00 1011.38 1012.26 1012.70 1013.01 1013.61 1014.14 1014.61 1014.84 1015.21 1015.67 1016.15 1016.70 1017.00 1017.24 1017.48 1017.63 1017.96 1018.25 1018.55 1019.04 1019.41 1019.81 1020.05 1020.14 1020.43 1020.67 1020.81 1020.96 1020.80 1020.43 1020.29 1020.09 1019.83 1020.24 1021.18 1021.41 1021.54 1021.74 1021.63 1021.56 1021.55
1008.80 1009.75 1010.87 1012.27 1012.95 1013.34 1014.05 1014.38 1014.80 1015.12 1015.53 1016.04 1016.43 1017.00 1017.34 1017.57 1017.77 1017.96 1018.30 1018.74 1019.09 1019.41 1019.66 1020.27 1020.49 1020.79 1020.98 1021.30 1021.13 1021.32 1021.22 1020.69 1020.41 1019.97 1019.62 1020.29 1021.35 1021.88 1021.89 1022.24 1022.29 1022.16 1022.09
1009.41 1009.88 1010.63 1011.85 1012.72 1013.47 1014.18 1014.52 1015.07 1015.44 1015.79 1016.38 1016.79 1017.21 1017.55 1017.88 1018.04 1018.35 1018.71 1019.12 1019.54 1019.96 1020.35 1020.71 1021.14 1021.35 1021.50 1021.68 1021.64 1021.64 1021.52 1021.01 1020.73 1020.35 1020.68 1021.21 1021.73 1022.56 1022.58 1022.66 1022.60 1022.70 1022.78
1009.18 1009.87 1011.23 1011.55 1012.78 1013.36 1014.00 1014.67 1015.32 1015.80 1016.12 1016.48 1017.02 1017.34 1017.61 1018.17 1018.42 1018.70 1019.12 1019.60 1020.09 1020.54 1020.99 1021.20 1021.54 1022.19 1022.07 1022.11 1022.02 1022.01 1021.74 1021.26 1020.75 1020.63 1021.43 1022.35 1022.74 1023.24 1023.10 1023.25 1023.28 1023.28 1023.38
1009.96 1010.78 1012.07 1012.56 1013.39 1013.76 1014.18 1014.97 1015.61 1016.12 1016.44 1016.86 1017.27 1017.58 1017.88 1018.43 1018.79 1018.95 1019.35 1020.02 1020.57 1021.18 1021.53 1021.87 1021.99 1022.60 1022.46 1022.46 1022.32 1022.23 1021.94 1021.30 1020.46 1021.12 1022.12 1022.93 1023.44 1023.65 1023.72 1023.91 1023.86 1023.88 1023.96
1010.24 1010.69 1012.12 1012.98 1014.08 1014.44 1014.83 1015.48 1016.16 1016.63 1016.85 1017.19 1017.51 1018.06 1018.40 1018.67 1019.20 1019.52 1019.78 1020.33 1021.00 1021.64 1022.01 1022.30 1022.72 1022.92 1022.90 1022.89 1022.75 1022.60 1022.37 1021.89 1021.09 1021.34 1022.51 1023.59 1024.16 1024.11 1024.21 1024.44 1024.38 1024.38 1024.46
1011.44 1010.13 1011.30 1013.92 1014.64 1015.35 1015.64 1016.16 1016.82 1017.30 1017.58 1017.80 1017.78 1018.44 1019.04 1019.34 1019.80 1020.20 1020.44 1020.99 1021.53 1021.95 1022.38 1022.77 1023.20 1023.28 1023.25 1023.40 1023.25 1022.89 1022.59 1022.18 1021.53 1021.61 1022.27 1023.83 1024.55 1024.55 1024.62 1024.78 1024.94 1025.06 1025.04
1012.47 1012.68 1013.72 1014.60 1015.27 1016.17 1016.17 1016.52 1017.05 1018.24 1018.56 1018.46 1018.43 1018.88 1019.46 1020.02 1020.31 1020.79 1021.16 1021.51 1021.88 1022.39 1022.84 1023.19 1023.50 1023.66 1023.76 1023.70 1023.56 1023.45 1022.99 1022.55 1022.00 1021.90 1023.12 1024.30 1024.84 1024.87 1025.00 1025.23 1025.11 1025.39 1025.47
1013.90 1013.66 1014.31 1014.69 1015.36 1015.88 1016.36 1017.21 1018.13 1018.72 1019.28 1019.07 1019.26 1019.64 1019.76 1020.48 1020.75 1020.79 1021.80 1022.05 1022.36 1022.75 1023.10 1023.45 1023.74 1023.87 1024.07 1024.01 1023.84 1023.45 1023.14 1022.53 1022.29 1022.37 1023.70 1024.73 1024.95 1025.30 1025.38 1025.42 1025.67 1025.75 1025.73
1015.11 1015.27 1015.28 1015.40 1015.84 1016.48 1016.77 1017.53 1018.44 1018.76 1018.98 1018.99 1019.65 1019.66 1019.90 1020.46 1020.73 1021.47 1022.37 1022.75 1022.95 1023.24 1023.53 1023.70 1023.81 1023.77 1023.71 1022.92 1023.19 1023.24 1023.20 1022.98 1022.72 1022.93 1024.46 1025.00 1025.18 1025.34 1025.75 1025.65 1025.96 1026.11 1026.18
1015.50 1015.91 1015.99 1016.14 1016.20 1017.19 1017.83 1018.36 1019.23 1019.37 1019.31 1019.24 1020.08 1019.83 1020.17 1020.74 1021.29 1022.20 1022.89 1023.15 1023.43 1023.59 1023.48 1023.69 1023.77 1023.25 1023.35 1023.28 1023.44 1023.44 1023.51 1023.15 1023.04 1023.15 1025.03 1025.29 1025.30 1025.28 1025.70 1025.96 1026.13 1026.30 1026.49
1016.18 1016.32 1016.72 1017.09 1017.73 1017.86 1018.62 1019.45 1019.72 1019.65 1019.37 1019.88 1020.20 1020.47 1020.51 1021.14 1021.68 1022.21 1022.40 1022.73 1022.95 1022.86 1023.04 1023.15 1023.31 1023.77 1023.84 1024.06 1024.02 1023.89 1023.89 1023.64 1023.52 1023.44 1025.05 1025.48 1025.29 1025.18 1025.64 1025.88 1026.25 1026.34 1026.62
1016.74 1017.03 1017.41 1017.81 1018.53 1018.86 1019.19 1019.77 1019.89 1020.44 1020.13 1020.26 1020.85 1021.15 1020.87 1021.38 1021.63 1021.68 1021.90 1022.05 1022.30 1022.49 1022.98 1023.24 1023.56 1023.77 1023.87 1023.94 1023.81 1023.92 1024.08 1024.09 1023.85 1023.60 1024.34 1025.38 1025.52 1025.26 1025.45 1025.88 1026.14 1026.40 1026.54
1017.29 1017.73 1018.21 1018.63 1019.10 1019.59 1020.24 1020.91 1020.97 1020.24 1020.18 1020.42 1020.61 1020.85 1021.00 1021.29 1021.59 1021.53 1021.87 1021.90 1022.12 1022.50 1022.73 1023.08 1023.16 1023.50 1023.28 1023.78 1024.27 1024.28 1024.27 1023.87 1024.18 1024.05 1023.88 1025.20 1025.72 1025.43 1025.54 1025.70 1025.98 1026.18 1026.38
1017.63 1018.36 1018.81 1019.40 1019.89 1020.25 1020.76 1020.48 1020.50 1020.59 1020.24 1020.22 1020.38 1020.65 1021.01 1021.15 1021.56 1021.63 1021.80 1021.79 1022.20 1022.51 1022.80 1022.96 1023.28 1023.15 1023.40 1023.49 1023.96 1024.04 1024.13 1024.38 1024.40 1024.36 1024.25 1024.38 1025.53 1025.81 1025.93 1026.08 1026.21 1026.39 1026.52
1017.29 1018.37 1019.08 1019.47 1019.91 1020.08 1020.40 1020.51 1020.58 1019.60 1019.82 1019.65 1019.87 1020.22 1020.91 1021.11 1021.43 1021.42 1021.61 1022.04 1022.33 1022.51 1022.92 1022.96 1023.08 1022.90 1023.09 1023.26 1023.61 1023.75 1024.02 1024.13 1024.40 1024.60 1024.45 1024.34 1024.23 1024.77 1025.71 1026.04 1026.37 1026.61 1026.65
1015.91 1017.13 1018.00 1018.52 1018.96 1019.18 1019.43 1019.60 1019.44 1019.10 1019.45 1019.42 1019.55 1019.96 1020.86 1021.08 1021.20 1021.24 1021.42 1021.72 1022.15 1022.46 1022.60 1023.18 1023.06 1022.76 1023.02 1023.24 1023.35 1023.76 1024.04 1023.94 1024.27 1024.30 1024.68 1024.75 1024.84 1024.88 1024.87 1025.82 1026.12 1026.36 1026.61
1015.24 1016.29 1016.76 1017.53 1018.16 1018.36 1018.61 1018.60 1018.72 1018.94 1019.10 1018.98 1019.10 1019.66 1020.32 1020.45 1020.62 1021.13 1020.96 1021.36 1021.97 1022.40 1022.87 1022.90 1022.85 1022.97 1023.01 1023.03 1022.95 1023.36 1023.82 1024.08 1023.96 1024.21 1024.51 1024.74 1024.72 1025.21 1025.43 1025.36 1025.53 1025.48 1026.19
1014.52 1015.36 1016.06 1016.91 1017.06 1017.27 1017.56 1017.80 1018.15 1018.30 1018.39 1018.67 1018.74 1019.20 1020.16 1020.20 1020.12 1020.61 1020.68 1020.97 1021.80 1021.90 1022.24 1022.68 1022.90 1023.13 1023.10 1023.18 1023.18 1023.13 1023.03 1023.41 1023.95 1023.99 1024.10 1024.26 1024.32 1024.68 1025.02 1025.29 1025.45 1025.31 1025.64
1013.72 1014.67 1015.42 1015.94 1016.24 1016.43 1016.56 1016.93 1017.15 1017.47 1017.88 1018.34 1018.77 1018.73 1019.44 1020.04 1019.88 1020.32 1020.51 1020.60 1021.25 1021.31 1021.99 1022.32 1022.84 1022.96 1022.86 1023.04 1023.02 1022.73 1022.72 1022.76 1023.45 1023.68 1023.66 1023.82 1024.12 1024.54 1024.60 1024.69 1025.23 1025.55 1025.69
1013.08 1013.80 1014.29 1014.71 1015.21 1015.60 1015.58 1015.90 1016.32 1016.75 1017.08 1017.44 1017.79 1018.25 1019.36 1020.28 1020.29 1020.68 1020.95 1020.73 1020.86 1021.07 1021.34 1022.24 1022.57 1022.53 1022.41 1022.80 1023.26 1023.03 1022.91 1022.91 1022.94 1022.23 1022.93 1023.35 1023.67 1024.06 1024.32 1024.48 1024.66 1024.95 1025.14
1012.31 1013.06 1013.64 1014.01 1014.29 1014.64 1014.90 1014.92 1015.27 1015.89 1016.22 1016.64 1017.22 1017.87 1019.13 1019.92 1020.06 1020.04 1020.93 1020.99 1020.47 1020.59 1021.06 1021.92 1022.21 1022.14 1022.04 1022.05 1022.98 1023.42 1023.95 1024.16 1023.59 1022.52 1022.06 1022.33 1023.07 1023.68 1023.96 1024.20 1024.21 1024.43 1024.64
1011.18 1011.96 1012.75 1013.20 1013.39 1013.59 1013.93 1014.52 1014.72 1015.32 1015.60 1015.92 1016.56 1017.26 1018.60 1019.30 1019.79 1019.94 1020.37 1020.71 1020.33 1020.75 1021.27 1021.59 1021.58 1021.66 1021.76 1022.19 1023.24 1024.05 1024.40 1024.28 1023.76 1023.49 1022.61 1022.21 1022.23 1022.40 1022.51 1023.14 1023.69 1023.98 1024.39
1010.04 1011.03 1011.84 1012.34 1012.58 1012.89 1013.27 1013.70 1014.23 1014.44 1015.10 1015.24 1015.44 1016.96 1017.97 1018.57 1019.00 1019.22 1019.51 1019.98 1020.46 1021.08 1021.21 1020.88 1020.74 1021.45 1022.41 1023.06 1023.46 1024.25 1024.59 1024.27 1023.44 1023.18 1022.69 1022.47 1022.30 1022.33 1022.33 1022.49 1023.12 1023.80 1023.99
Thickness
5738 5733 5728 5728 5726 5723 5718 5715 5712 5711 5709 5705 5703 5699 5696 5694 5692 5690 5688 5686 5683 5679 5676 5673 5671 5670 5669 5667 5665 5662 5663 5664 5663 5663 5662 5661 5660 5659 5659 5659 5659 5656 5655
5738 5727 5721 5719 5719 5717 5713 5710 5708 5705 5703 5699 5695 5692 5689 5687 5686 5685 5682 5679 5676 5673 5669 5666 5664 5664 5661 5663 5661 5660 5659 5660 5659 5661 5661 5657 5654 5653 5652 5650 5649 5649 5649
5733 5724 5716 5711 5710 5709 5706 5703 5700 5699 5696 5693 5689 5684 5682 5681 5680 5679 5676 5674 5671 5666 5663 5660 5659 5659 5657 5655 5654 5653 5654 5658 5658 5660 5659 5656 5647 5646 5645 5641 5642 5642 5641
5726 5720 5714 5706 5703 5701 5697 5696 5693 5691 5688 5685 5683 5678 5675 5674 5673 5673 5670 5666 5663 5661 5660 5653 5652 5651 5651 5648 5651 5648 5648 5653 5655 5658 5658 5652 5644 5640 5639 5635 5634 5634 5635
5714 5718 5712 5705 5699 5694 5689 5688 5684 5683 5682 5678 5676 5673 5670 5668 5667 5665 5663 5660 5656 5653 5650 5648 5645 5644 5644 5643 5644 5644 5644 5648 5649 5650 5647 5642 5638 5632 5631 5630 5629 5629 5628
5713 5711 5704 5703 5693 5689 5686 5682 5678 5676 5675 5674 5670 5668 5666 5661 5659 5657 5655 5652 5648 5645 5642 5641 5639 5633 5637 5637 5638 5637 5639 5642 5646 5644 5639 5631 5628 5622 5625 5623 5623 5622 5620
5698 5691 5686 5685 5677 5679 5679 5674 5671 5669 5668 5667 5663 5661 5659 5654 5651 5651 5649 5644 5639 5635 5633 5632 5633 5627 5631 5632 5633 5634 5635 5641 5643 5637 5630 5624 5620 5618 5617 5614 5615 5614 5612
5684 5682 5677 5675 5666 5666 5667 5665 5662 5659 5659 5658 5656 5652 5650 5647 5643 5642 5641 5638 5631 5626 5625 5624 5622 5622 5624 5625 5627 5629 5630 5633 5636 5633 5623 5615 5610 5611 5611 5608 5608 5607 5605
5674 5668 5658 5658 5655 5654 5653 5652 5650 5647 5647 5647 5648 5644 5640 5638 5635 5633 5632 5628 5622 5620 5617 5616 5615 5617 5619 5619 5621 5624 5626 5628 5630 5629 5622 5609 5605 5605 5604 5602 5599 5596 5595
5663 5655 5641 5644 5642 5640 5642 5643 5639 5628 5630 5635 5637 5634 5630 5626 5625 5621 5620 5618 5615 5611 5609 5609 5611 5612 5614 5615 5617 5617 5620 5622 5621 5623 5612 5604 5598 5599 5596 5593 5594 5589 5586
5650 5651 5648 5641 5639 5631 5636 5631 5625 5619 5615 5623 5623 5619 5619 5615 5614 5615 5609 5609 5607 5605 5605 5607 5608 5609 5608 5610 5611 5613 5614 5616 5617 5616 5606 5598 5594 5589 5588 5587 5583 5581 5578
5633 5633 5638 5639 5636 5626 5629 5625 5618 5615 5612 5618 5611 5610 5612 5610 5608 5604 5600 5600 5602 5602 5603 5604 5606 5608 5607 5612 5610 5609 5607 5609 5612 5608 5596 5593 5589 5586 5580 5580 5575 5571 5568
5624 5624 5628 5629 5629 5620 5618 5613 5606 5604 5606 5612 5602 5604 5602 5600 5600 5592 5591 5592 5594 5596 5600 5601 5601 5605 5604 5604 5604 5604 5601 5605 5606 5604 5590 5587 5582 5581 5575 5571 5567 5563 5559
5615 5617 5617 5615 5611 5611 5604 5601 5598 5597 5604 5601 5600 5596 5595 5594 5590 5588 5591 5591 5595 5599 5601 5600 5600 5597 5597 5595 5595 5598 5597 5597 5597 5595 5581 5576 5576 5574 5569 5565 5559 5556 5550
5608 5605 5604 5603 5600 5598 5594 5588 5594 5587 5593 5593 5589 5587 5589 5587 5588 5591 5592 5596 5600 5600 5599 5596 5595 5593 5593 5593 5595 5593 5590 5589 5589 5587 5579 5573 5570 5569 5566 5559 5554 5548 5544
5598 5594 5593 5592 5588 5585 5583 5582 5580 5581 5585 5586 5585 5583 5583 5584 5586 5589 5592 5597 5599 5597 5597 5595 5594 5591 5595 5591 5586 5585 5582 5585 5580 5580 5580 5569 5563 5562 5558 5553 5547 5542 5537
5591 5584 5583 5581 5579 5579 5576 5580 5581 5577 5582 5583 5583 5582 5582 5584 5585 5589 5592 5596 5595 5594 5592 5592 5591 5592 5590 5588 5582 5580 5579 5576 5574 5572 5568 5567 5558 5553 5548 5542 5537 5533 5528
5590 5581 5576 5576 5575 5575 5575 5575 5575 5580 5580 5585 5586 5588 5585 5587 5588 5591 5592 5591 5591 5592 5589 5589 5589 5591 5587 5584 5580 5578 5574 5572 5568 5563 5561 5559 5556 5551 5543 5536 5529 5524 5519
5606 5595 5588 5585 5581 5579 5576 5577 5581 5585 5585 5589 5593 5592 5585 5587 5589 5592 5593 5592 5589 5588 5589 5585 5584 5586 5582 5580 5578 5573 5568 5567 5562 5559 5552 5550 5545 5539 5534 5529 5522 5516 5510
5613 5607 5604 5598 5591 5590 5588 5589 5588 5590 5593 5597 5599 5595 5592 5593 5593 5591 5594 5592 5588 5585 5583 5582 5581 5580 5579 5577 5577 5571 5564 5559 5558 5553 5547 5541 5537 5530 5524 5519 5515 5512 5504
5621 5616 5611 5603 5604 5603 5601 5598 5598 5599 5602 5601 5601 5600 5593 5595 5595 5593 5593 5591 5587 5587 5584 5581 5578 5573 5572 5570 5567 5565 5564 5561 5551 5546 5542 5536 5530 5523 5517 5510 5503 5498 5491
5627 5621 5616 5613 5612 5611 5611 5609 5609 5608 5605 5603 5599 5602 5598 5593 5595 5593 5592 5591 5587 5587 5581 5579 5572 5568 5568 5565 5560 5560 5554 5553 5544 5540 5539 5530 5522 5511 5505 5500 5493 5484 5479
5633 5629 5626 5624 5621 5619 5621 5619 5616 5614 5611 5608 5607 5606 5598 5589 5592 5590 5588 5588 5586 5582 5581 5572 5567 5564 5562 5560 5553 5551 5545 5541 5537 5537 5527 5520 5513 5502 5495 5488 5481 5473 5468
5640 5637 5633 5631 5629 5628 5627 5626 5623 5616 5613 5613 5610 5605 5595 5591 5591 5590 5584 5581 5582 5580 5576 5566 5561 5560 5560 5557 5549 5539 5530 5523 5521 5522 5520 5513 5502 5493 5486 5479 5471 5463 5455
5650 5645 5640 5638 5637 5636 5634 5629 5626 5619 5618 5617 5613 5607 5597 5591 5587 5586 5581 5577 5578 5572 5567 5562 5560 5558 5555 5549 5535 5523 5516 5512 5511 5505 5503 5501 5494 5485 5475 5468 5461 5451 5442
5659 5651 5646 5642 5640 5640 5638 5634 5628 5624 5619 5619 5619 5605 5599 5594 5589 5586 5581 5577 5572 5565 5562 5562 5559 5552 5540 5531 5524 5511 5503 5501 5501 5495 5493 5487 5481 5474 5465 5456 5447 5437 5428